When you browse on this site, cookies collect data to enhance your experience and personalize the content and advertising you see.
Visit our Privacy Policy to learn more. By continuing to use the site, you agree to this use of cookies and data.
  • In Portugal
  • List of Countries
  • For 7 days
  • Water Temperature
  • Satellite Maps
  • Weather Map
  • Weather Widgets
  • user-avatar
    Login

    Hourly Weather Wierzbie

    Today, 18 April, Thursday

    Time Temperature Precipitation Wind Pressure Humidity
    00:00 +9°C° 0 mm 2 mps 763 mmHg 68%
    01:00 +8°C° 0 mm 2 mps 763 mmHg 68%
    02:00 +8°C° 0 mm 2 mps 763 mmHg 69%
    03:00 +8°C° 0 mm 2 mps 763 mmHg 70%
    04:00 +7°C° 0 mm 2 mps 764 mmHg 72%
    05:00 +8°C° 0 mm 2 mps 764 mmHg 70%
    06:00 +9°C° 0 mm 2 mps 764 mmHg 68%
    07:00 +12°C° 0 mm 2 mps 764 mmHg 66%
    08:00 +14°C° 0 mm 2 mps 765 mmHg 60%
    09:00 +16°C° 0 mm 3 mps 765 mmHg 53%
    10:00 +18°C° 0 mm 3 mps 765 mmHg 47%
    11:00 +18°C° 0 mm 3 mps 765 mmHg 44%
    12:00 +19°C° 0 mm 3 mps 764 mmHg 41%
    13:00 +20°C° 0 mm 3 mps 764 mmHg 38%
    14:00 +20°C° 0 mm 3 mps 764 mmHg 38%
    15:00 +20°C° 0 mm 3 mps 764 mmHg 38%
    16:00 +20°C° 0 mm 3 mps 764 mmHg 38%
    17:00 +18°C° 0 mm 2 mps 764 mmHg 43%
    18:00 +16°C° 0 mm 2 mps 764 mmHg 48%
    19:00 +14°C° 0 mm 1 mps 764 mmHg 53%
    20:00 +13°C° 0 mm 2 mps 765 mmHg 58%
    21:00 +13°C° 0 mm 2 mps 765 mmHg 63%
    22:00 +11°C° 0 mm 3 mps 766 mmHg 68%
    23:00 +10°C° 0 mm 3 mps 766 mmHg 71%

    Tomorrow, 19 April, Friday

    Time Temperature Precipitation Wind Pressure Humidity
    00:00 +9°C° 0 mm 3 mps 766 mmHg 74%
    01:00 +9°C° 0 mm 3 mps 766 mmHg 76%
    02:00 +8°C° 0 mm 3 mps 766 mmHg 77%
    03:00 +8°C° 0 mm 3 mps 766 mmHg 77%
    04:00 +7°C° 0 mm 3 mps 766 mmHg 78%
    05:00 +8°C° 0 mm 3 mps 766 mmHg 74%
    06:00 +9°C° 0 mm 3 mps 767 mmHg 70%
    07:00 +10°C° 0 mm 3 mps 767 mmHg 67%
    08:00 +12°C° 0 mm 3 mps 767 mmHg 60%
    09:00 +14°C° 0 mm 3 mps 767 mmHg 53%
    10:00 +17°C° 0 mm 3 mps 767 mmHg 47%
    11:00 +18°C° 0 mm 3 mps 767 mmHg 42%
    12:00 +19°C° 0 mm 3 mps 766 mmHg 37%
    13:00 +20°C° 0 mm 3 mps 766 mmHg 33%
    14:00 +20°C° 0 mm 3 mps 766 mmHg 33%
    15:00 +20°C° 0 mm 3 mps 766 mmHg 33%
    16:00 +20°C° 0 mm 3 mps 765 mmHg 33%
    17:00 +18°C° 0 mm 3 mps 765 mmHg 40%
    18:00 +16°C° 0 mm 3 mps 765 mmHg 46%
    19:00 +13°C° 0 mm 3 mps 765 mmHg 52%
    20:00 +12°C° 0 mm 3 mps 766 mmHg 59%
    21:00 +10°C° 0 mm 3 mps 766 mmHg 65%
    22:00 +9°C° 0 mm 3 mps 766 mmHg 72%
    23:00 +8°C° 0 mm 3 mps 766 mmHg 72%

    Day after tomorrow, 20 April, Saturday

    Time Temperature Precipitation Wind Pressure Humidity
    00:00 +7°C° 0 mm 3 mps 766 mmHg 71%
    01:00 +7°C° 0 mm 3 mps 766 mmHg 71%
    02:00 +5°C° 0 mm 3 mps 765 mmHg 68%
    03:00 +5°C° 0 mm 2 mps 765 mmHg 66%
    04:00 +5°C° 0 mm 2 mps 765 mmHg 63%
    05:00 +5°C° 0 mm 2 mps 765 mmHg 60%
    06:00 +5°C° 0 mm 3 mps 765 mmHg 57%
    07:00 +7°C° 0 mm 3 mps 765 mmHg 54%
    08:00 +9°C° 0 mm 3 mps 765 mmHg 50%
    09:00 +11°C° 0 mm 3 mps 765 mmHg 47%
    10:00 +13°C° 0 mm 3 mps 765 mmHg 43%
    11:00 +14°C° 0 mm 4 mps 764 mmHg 42%
    12:00 +17°C° 0 mm 4 mps 764 mmHg 42%
    13:00 +18°C° 0 mm 4 mps 764 mmHg 41%
    14:00 +18°C° 0 mm 4 mps 763 mmHg 41%
    15:00 +18°C° 0 mm 4 mps 763 mmHg 42%
    16:00 +18°C° 0 mm 4 mps 763 mmHg 42%
    17:00 +15°C° 0 mm 4 mps 763 mmHg 47%
    18:00 +13°C° 0 mm 4 mps 763 mmHg 52%
    19:00 +11°C° 0 mm 3 mps 763 mmHg 57%
    20:00 +10°C° 0 mm 3 mps 763 mmHg 59%
    21:00 +9°C° 0 mm 3 mps 763 mmHg 62%
    22:00 +8°C° 0 mm 3 mps 763 mmHg 65%
    23:00 +7°C° 0 mm 3 mps 763 mmHg 66%

    21 April, Sunday

    Time Temperature Precipitation Wind Pressure Humidity
    00:00 +5°C° 0 mm 3 mps 762 mmHg 68%
    01:00 +6°C° 0 mm 2 mps 762 mmHg 69%
    02:00 +5°C° 0 mm 2 mps 762 mmHg 70%
    03:00 +5°C° 0 mm 2 mps 762 mmHg 70%
    04:00 +5°C° 0 mm 2 mps 762 mmHg 71%
    05:00 +6°C° 0 mm 2 mps 761 mmHg 67%
    06:00 +7°C° 0 mm 2 mps 761 mmHg 63%
    07:00 +8°C° 0 mm 2 mps 761 mmHg 60%
    08:00 +10°C° 0 mm 2 mps 761 mmHg 54%
    09:00 +13°C° 0 mm 2 mps 761 mmHg 48%
    10:00 +15°C° 0 mm 2 mps 761 mmHg 43%
    11:00 +16°C° 0 mm 2 mps 760 mmHg 40%
    12:00 +17°C° 0 mm 3 mps 760 mmHg 38%
    13:00 +18°C° 0 mm 3 mps 759 mmHg 35%
    14:00 +18°C° 0 mm 3 mps 759 mmHg 35%
    15:00 +18°C° 0 mm 3 mps 758 mmHg 36%
    16:00 +18°C° 0 mm 3 mps 758 mmHg 36%
    17:00 +17°C° 0 mm 2 mps 758 mmHg 41%
    18:00 +15°C° 0 mm 1 mps 758 mmHg 46%
    19:00 +13°C° 0 mm 1 mps 758 mmHg 52%
    20:00 +12°C° 0 mm 1 mps 758 mmHg 55%
    21:00 +11°C° 0 mm 1 mps 758 mmHg 58%
    22:00 +11°C° 0 mm 1 mps 758 mmHg 61%
    23:00 +10°C° 0 mm 1 mps 758 mmHg 63%

    22 April, Monday

    Time Temperature Precipitation Wind Pressure Humidity
    00:00 +9°C° 0 mm 1 mps 758 mmHg 65%
    01:00 +9°C° 0 mm 1 mps 757 mmHg 66%
    02:00 +8°C° 0 mm 1 mps 757 mmHg 69%
    03:00 +8°C° 0 mm 1 mps 757 mmHg 71%
    04:00 +7°C° 0 mm 1 mps 757 mmHg 73%
    05:00 +8°C° 0 mm 2 mps 757 mmHg 70%
    06:00 +9°C° 0 mm 2 mps 757 mmHg 67%
    07:00 +10°C° 0 mm 3 mps 757 mmHg 65%
    08:00 +12°C° 0 mm 3 mps 757 mmHg 60%
    09:00 +13°C° 0 mm 3 mps 757 mmHg 56%
    10:00 +15°C° 0 mm 4 mps 757 mmHg 51%
    11:00 +15°C° 0.1 mm 4 mps 757 mmHg 50%
    12:00 +17°C° 0.1 mm 4 mps 757 mmHg 48%
    13:00 +18°C° 0.1 mm 4 mps 756 mmHg 46%
    14:00 +17°C° 0.2 mm 4 mps 756 mmHg 48%
    15:00 +17°C° 0.2 mm 4 mps 756 mmHg 50%
    16:00 +17°C° 0.2 mm 4 mps 756 mmHg 52%
    17:00 +14°C° 0.1 mm 4 mps 756 mmHg 60%
    18:00 +12°C° 0.1 mm 3 mps 756 mmHg 68%
    19:00 +11°C° 0.1 mm 3 mps 756 mmHg 75%
    20:00 +10°C° 0 mm 3 mps 757 mmHg 77%
    21:00 +10°C° 0 mm 4 mps 757 mmHg 80%
    22:00 +8°C° 0 mm 4 mps 757 mmHg 82%
    23:00 +8°C° 0 mm 4 mps 757 mmHg 82%

    23 April, Tuesday

    Time Temperature Precipitation Wind Pressure Humidity
    00:00 +8°C° 0 mm 5 mps 757 mmHg 81%
    01:00 +8°C° 0 mm 5 mps 757 mmHg 81%
    02:00 +7°C° 0 mm 6 mps 757 mmHg 78%
    03:00 +7°C° 0 mm 6 mps 757 mmHg 75%
    04:00 +7°C° 0 mm 6 mps 757 mmHg 73%
    05:00 +6°C° 0 mm 7 mps 757 mmHg 70%
    06:00 +7°C° 0 mm 8 mps 757 mmHg 68%
    07:00 +7°C° 0 mm 9 mps 757 mmHg 66%
    08:00 +10°C° 0 mm 8 mps 756 mmHg 63%
    09:00 +12°C° 0 mm 8 mps 756 mmHg 61%
    10:00 +13°C° 0 mm 8 mps 756 mmHg 59%
    11:00 +13°C° 0.1 mm 8 mps 756 mmHg 61%
    12:00 +13°C° 0.1 mm 8 mps 755 mmHg 64%
    13:00 +12°C° 0.1 mm 8 mps 755 mmHg 66%
    14:00 +15°C° 0 mm 9 mps 754 mmHg 62%
    15:00 +16°C° 0 mm 9 mps 754 mmHg 58%
    16:00 +17°C° 0 mm 9 mps 754 mmHg 53%
    17:00 +16°C° 0 mm 9 mps 754 mmHg 53%
    18:00 +15°C° 0 mm 9 mps 753 mmHg 53%
    19:00 +15°C° 0 mm 9 mps 753 mmHg 52%
    20:00 +13°C° 0 mm 8 mps 753 mmHg 53%
    21:00 +12°C° 0 mm 8 mps 754 mmHg 54%
    22:00 +11°C° 0 mm 7 mps 754 mmHg 55%
    23:00 +11°C° 0 mm 7 mps 753 mmHg 56%
    Show more